Flag for Malta Weather past 2 weeks in Valletta, Malta

Now
72 °F

Scattered clouds.


Feels Like: 77 °F
Forecast: 61 / 73 °F
Wind: 20 mph from North

Location: Luqa

Current Time: Oct 25, 2014 at 10:47:02 AM

Latest Report: Oct 25, 2014 at 10:15 AM


Visibility: N/A

Pressure: 29.98 "Hg

Humidity: 53%

Dew point: 54 °F

Location of VallettaLocation

Historic Weather in Valletta — Graph

°F

Valletta temperature yesterday

Maximum temperature yesterday: 72 °F (at 10:15 AM)
Minimum temperature yesterday: 63 °F (at 4:15 AM)
Average temperature yesterday: 67 °F

Past Weeks' High & Low Weather Summary

 TemperatureHumidityPressure
High86 °F (Oct 18, 1:45 PM)100% (Oct 17, 12:45 AM)30.24 "Hg (Oct 17, 12:45 AM)
Low63 °F (Oct 24, 4:15 AM)33% (Oct 23, 12:15 PM)29.74 "Hg (Oct 22, 3:45 PM)
Average73 °F74%30.02 "Hg
* Reported Oct 10 9:15 AM — Oct 25 9:45 AM, Valletta, Weather by CustomWeather, © 2014

Note: Actual official high and low records may vary slightly from our data, if they occured in-between our weather recording intervals... More about our weather records

Advertising

Valletta weather history for previous 24 hours

 ConditionsComfort  
Time TempWeatherWind HumidityBarometerVisibility
9:45 AM
Oct 25
72 °FPassing clouds.14 mph53%29.98 "HgN/A
9:15 AM70 °FPassing clouds.15 mph57%29.98 "HgN/A
8:45 AM68 °FPassing clouds.12 mph60%29.98 "HgN/A
8:15 AM66 °FPassing clouds.10 mph64%29.95 "HgN/A
7:45 AM66 °FPassing clouds.10 mph64%29.95 "HgN/A
7:15 AM64 °FPassing clouds.10 mph73%29.95 "HgN/A
6:45 AM64 °FPassing clouds.9 mph73%29.92 "HgN/A
6:15 AM64 °FPassing clouds.10 mph68%29.92 "HgN/A
5:45 AM64 °FPassing clouds.9 mph73%29.92 "HgN/A
5:15 AM64 °FPassing clouds.6 mph73%29.92 "HgN/A
4:45 AM64 °FClear.8 mph68%29.92 "Hg10 mi
4:15 AM64 °FClear.8 mph68%29.92 "Hg10 mi
3:45 AM64 °FClear.8 mph68%29.95 "Hg10 mi
3:15 AM64 °FClear.10 mph64%29.95 "Hg10 mi
2:45 AM64 °FClear.7 mph64%29.95 "Hg10 mi
2:15 AM64 °FPassing clouds.7 mph64%29.95 "HgN/A
1:15 AM64 °FPassing clouds.6 mph64%29.95 "HgN/A
12:45 AM64 °FPassing clouds.6 mph64%29.95 "HgN/A
12:15 AM63 °FPassing clouds.7 mph68%29.95 "HgN/A
11:45 PM
Oct 24
64 °FPassing clouds.8 mph60%29.92 "HgN/A
11:15 PM64 °FPassing clouds.6 mph60%29.95 "HgN/A
10:45 PM64 °FPassing clouds.8 mph64%29.95 "HgN/A
10:15 PM64 °FPassing clouds.9 mph64%29.92 "HgN/A
9:45 PM64 °FPassing clouds.8 mph64%29.92 "HgN/A
9:15 PM64 °FPassing clouds.8 mph64%29.92 "HgN/A
8:45 PM64 °FPassing clouds.8 mph60%29.89 "HgN/A
8:15 PM64 °FPassing clouds.9 mph60%29.89 "HgN/A
7:45 PM66 °FPassing clouds.9 mph56%29.89 "HgN/A
7:15 PM66 °FPassing clouds.13 mph56%29.86 "HgN/A
6:45 PM66 °FPassing clouds.13 mph56%29.86 "HgN/A
6:15 PM66 °FPassing clouds.15 mph56%29.86 "HgN/A
5:45 PM68 °FPassing clouds.15 mph53%29.86 "HgN/A
5:15 PM68 °FPassing clouds.17 mph53%29.83 "HgN/A
4:45 PM70 °FPassing clouds.18 mph50%29.83 "HgN/A
4:15 PM70 °FScattered clouds.21 mph53%29.83 "HgN/A
3:45 PM72 °FScattered clouds.17 mph50%29.83 "HgN/A
3:15 PM68 °FScattered clouds.15 mph56%29.83 "HgN/A
2:45 PM68 °FPartly sunny.16 mph53%29.83 "HgN/A
2:15 PM68 °FPartly sunny.20 mph53%29.83 "HgN/A
1:45 PM68 °FScattered clouds.18 mph56%29.83 "HgN/A
1:15 PM70 °FScattered clouds.21 mph50%29.83 "HgN/A
12:45 PM70 °FScattered clouds.20 mph53%29.83 "HgN/A
12:15 PM70 °FScattered clouds.23 mph50%29.83 "HgN/A
11:45 AM72 °FScattered clouds.25 mph44%29.83 "HgN/A
11:15 AM70 °FPartly sunny.30 mph43%29.83 "HgN/A
10:45 AM70 °FScattered clouds.26 mph46%29.80 "HgN/A
10:15 AM72 °FScattered clouds.29 mph38%29.80 "HgN/A
Weather by CustomWeather, © 2014

See weather overviewHow to use our weather pages